| time (UTC) | temp F | wind direction | speed knots | gust knots | rain 1hr in | rain 24hr in | rain mn in | humidity % | barometer mb |
| 20260903210023 | 95 | 183 | 2.6 | 6.1 | 0.00 | 0.00 | 0.00 | 48 | 1009.3 |
| 20260903204521 | 95 | 200 | 1.7 | 6.1 | 0.00 | 0.00 | 0.00 | 49 | 1009.4 |
| 20260903203023 | 93 | 88 | 0.9 | 6.1 | 0.00 | 0.00 | 0.00 | 50 | 1009.8 |
| 20260903201517 | 93 | 142 | 1.7 | 8.7 | 0.00 | 0.00 | 0.00 | 51 | 1010.0 |
| 20260903200033 | 93 | 196 | 0.9 | 6.1 | 0.00 | 0.00 | 0.00 | 52 | 1010.2 |
| 20260903194527 | 93 | 195 | 0.9 | 4.3 | 0.00 | 0.00 | 0.00 | 51 | 1010.2 |
| 20260903193005 | 92 | 207 | 2.6 | 7.8 | 0.00 | 0.00 | 0.00 | 52 | 1010.3 |
| 20260903191505 | 92 | 211 | 1.7 | 7.8 | 0.00 | 0.00 | 0.00 | 53 | 1010.5 |
| 20260903190002 | 92 | 173 | 0.9 | 7.8 | 0.00 | 0.00 | 0.00 | 52 | 1010.8 |
| 20260903184604 | 92 | 55 | 1.7 | 7.0 | 0.00 | 0.00 | 0.00 | 53 | 1010.8 |
| 20260903183118 | 91 | 256 | 0.9 | 5.2 | 0.00 | 0.00 | 0.00 | 54 | 1011.0 |
| 20260903181619 | 91 | 165 | 1.7 | 7.0 | 0.00 | 0.00 | 0.00 | 54 | 1011.2 |
| 20260903180054 | 91 | 226 | 1.7 | 6.1 | 0.00 | 0.00 | 0.00 | 54 | 1011.6 |
| 20260903174554 | 91 | 116 | 1.7 | 6.1 | 0.00 | 0.00 | 0.00 | 54 | 1011.7 |
| 20260903173056 | 90 | 207 | 2.6 | 7.8 | 0.00 | 0.00 | 0.00 | 56 | 1011.8 |
| 20260903171551 | 90 | 165 | 0.9 | 6.1 | 0.00 | 0.00 | 0.00 | 56 | 1011.9 |
| 20260903170044 | 89 | 213 | 1.7 | 5.2 | 0.00 | 0.00 | 0.00 | 56 | 1011.9 |
| 20260903164541 | 88 | 186 | 1.7 | 5.2 | 0.00 | 0.00 | 0.00 | 58 | 1011.8 |
| 20260903163037 | 88 | 153 | 0.9 | 7.0 | 0.00 | 0.00 | 0.00 | 59 | 1011.8 |
| 20260903161541 | 87 | 194 | 0.9 | 3.5 | 0.00 | 0.00 | 0.00 | 61 | 1011.9 |
| 20260903160029 | 86 | 144 | 0.9 | 5.2 | 0.00 | 0.00 | 0.00 | 63 | 1011.9 |
| 20260903154525 | 85 | 75 | 0.0 | 4.3 | 0.00 | 0.00 | 0.00 | 64 | 1012.1 |
| 20260903153021 | 84 | 169 | 0.0 | 5.2 | 0.00 | 0.00 | 0.00 | 66 | 1012.3 |
| 20260903151517 | 82 | 204 | 0.0 | 4.3 | 0.00 | 0.00 | 0.00 | 70 | 1012.3 |
| 20260903150016 | 81 | 207 | 1.7 | 5.2 | 0.00 | 0.00 | 0.00 | 70 | 1012.4 |
| 20260903144513 | 81 | 360 | 0.9 | 4.3 | 0.00 | 0.00 | 0.00 | 71 | 1012.7 |
| 20260903143010 | 80 | 163 | 0.9 | 7.0 | 0.00 | 0.00 | 0.00 | 73 | 1012.9 |
| 20260903141509 | 79 | 105 | 1.7 | 6.1 | 0.00 | 0.00 | 0.00 | 73 | 1012.7 |
| 20260903140014 | 79 | 212 | 2.6 | 7.8 | 0.00 | 0.00 | 0.00 | 74 | 1012.7 |
| 20260903134508 | 78 | 360 | 0.9 | 6.1 | 0.00 | 0.00 | 0.00 | 75 | 1012.9 |
| 20260903133005 | 78 | 199 | 0.9 | 4.3 | 0.00 | 0.00 | 0.00 | 74 | 1012.9 |
| 20260903131506 | 78 | 139 | 0.0 | 4.3 | 0.00 | 0.00 | 0.00 | 75 | 1012.7 |
| 20260903130104 | 77 | 360 | 0.0 | 5.2 | 0.00 | 0.00 | 0.00 | 76 | 1012.6 |
| 20260903124602 | 76 | 360 | 0.0 | 4.3 | 0.00 | 0.00 | 0.00 | 78 | 1012.7 |
| 20260903123052 | 75 | 360 | 0.9 | 3.5 | 0.00 | 0.00 | 0.00 | 79 | 1012.4 |
| 20260903121553 | 75 | 360 | 0.9 | 3.5 | 0.00 | 0.00 | 0.00 | 78 | 1012.3 |
| 20260903120046 | 76 | 360 | 0.9 | 2.6 | 0.00 | 0.00 | 0.00 | 77 | 1012.1 |
| 20260903114545 | 76 | 360 | 0.0 | 4.3 | 0.00 | 0.00 | 0.00 | 76 | 1012.0 |
| 20260903113043 | 76 | 360 | 0.9 | 3.5 | 0.00 | 0.00 | 0.00 | 75 | 1011.9 |
| 20260903111541 | 76 | 360 | 0.0 | 4.3 | 0.00 | 0.00 | 0.00 | 75 | 1011.8 |
| 20260903110041 | 76 | 360 | 0.0 | 3.5 | 0.00 | 0.00 | 0.00 | 74 | 1011.7 |
| 20260903104538 | 77 | 360 | 0.0 | 1.7 | 0.00 | 0.00 | 0.00 | 73 | 1011.5 |
| 20260903103036 | 77 | 360 | 0.0 | 3.5 | 0.00 | 0.00 | 0.00 | 72 | 1011.6 |
| 20260903101536 | 78 | 360 | 0.9 | 3.5 | 0.00 | 0.00 | 0.00 | 71 | 1011.5 |
| 20260903100033 | 78 | 360 | 0.0 | 3.5 | 0.00 | 0.00 | 0.00 | 71 | 1011.5 |
| 20260903094529 | 79 | 360 | 0.9 | 3.5 | 0.00 | 0.00 | 0.00 | 70 | 1011.5 |
| 20260903093027 | 79 | 360 | 0.9 | 2.6 | 0.00 | 0.00 | 0.00 | 69 | 1011.5 |
| 20260903091532 | 79 | 360 | 0.9 | 4.3 | 0.00 | 0.00 | 0.00 | 69 | 1011.5 |
| 20260903090027 | 80 | 360 | 0.9 | 4.3 | 0.00 | 0.00 | 0.00 | 68 | 1011.5 |
| 20260903084523 | 80 | 360 | 0.0 | 3.5 | 0.00 | 0.00 | 0.00 | 67 | 1011.5 |
| 20260903083020 | 80 | 360 | 0.9 | 4.3 | 0.00 | 0.00 | 0.00 | 66 | 1011.6 |
| 20260903081519 | 81 | 360 | 0.9 | 3.5 | 0.00 | 0.00 | 0.00 | 65 | 1011.4 |
| 20260903080017 | 81 | 360 | 1.7 | 5.2 | 0.00 | 0.00 | 0.00 | 65 | 1011.3 |
| 20260903074515 | 82 | 360 | 0.9 | 5.2 | 0.00 | 0.00 | 0.00 | 64 | 1011.4 |
| 20260903073013 | 82 | 360 | 0.9 | 7.0 | 0.00 | 0.00 | 0.00 | 63 | 1011.7 |
| 20260903071510 | 82 | 360 | 0.0 | 5.2 | 0.00 | 0.00 | 0.00 | 62 | 1011.7 |
| 20260903070008 | 83 | 360 | 0.9 | 4.3 | 0.00 | 0.00 | 0.00 | 61 | 1011.5 |
| 20260903064506 | 83 | 360 | 1.7 | 7.0 | 0.00 | 0.00 | 0.00 | 61 | 1011.5 |
| 20260903063005 | 84 | 360 | 1.7 | 7.8 | 0.00 | 0.00 | 0.00 | 59 | 1011.4 |
| 20260903061502 | 84 | 360 | 1.7 | 9.6 | 0.00 | 0.00 | 0.00 | 59 | 1011.5 |
| 20260903060100 | 84 | 360 | 1.7 | 7.0 | 0.00 | 0.00 | 0.00 | 58 | 1011.5 |
| 20260903054558 | 85 | 360 | 2.6 | 8.7 | 0.00 | 0.00 | 0.00 | 57 | 1011.5 |
| 20260903053057 | 85 | 360 | 2.6 | 8.7 | 0.00 | 0.00 | 0.00 | 56 | 1011.4 |
| 20260903051552 | 86 | 360 | 1.7 | 7.0 | 0.00 | 0.00 | 0.00 | 55 | 1011.5 |
| 20260903050051 | 86 | 360 | 1.7 | 7.8 | 0.00 | 0.00 | 0.00 | 54 | 1011.4 |
| 20260903044550 | 87 | 360 | 2.6 | 8.7 | 0.00 | 0.00 | 0.00 | 53 | 1011.4 |
| 20260903043103 | 87 | 360 | 1.7 | 7.8 | 0.00 | 0.00 | 0.00 | 51 | 1011.4 |
| 20260903041550 | 88 | 360 | 1.7 | 5.2 | 0.00 | 0.00 | 0.00 | 50 | 1011.3 |
| 20260903040049 | 88 | 360 | 1.7 | 3.5 | 0.00 | 0.00 | 0.00 | 49 | 1011.3 |
| 20260903034549 | 88 | 360 | 0.9 | 5.2 | 0.00 | 0.00 | 0.00 | 49 | 1011.3 |
| 20260903033048 | 89 | 184 | 0.0 | 3.5 | 0.00 | 0.00 | 0.00 | 48 | 1011.3 |
| 20260903031550 | 89 | 165 | 0.9 | 3.5 | 0.00 | 0.00 | 0.00 | 47 | 1011.3 |
| 20260903030100 | 89 | 360 | 0.9 | 3.5 | 0.00 | 0.00 | 0.00 | 47 | 1011.2 |
| 20260903024547 | 90 | 90 | 1.7 | 5.2 | 0.00 | 0.00 | 0.00 | 46 | 1011.2 |
| 20260903023046 | 90 | 168 | 0.9 | 5.2 | 0.00 | 0.00 | 0.00 | 45 | 1011.1 |
| 20260903021546 | 91 | 141 | 0.9 | 3.5 | 0.00 | 0.00 | 0.00 | 44 | 1011.0 |
| 20260903020052 | 91 | 175 | 0.0 | 2.6 | 0.00 | 0.00 | 0.00 | 43 | 1010.8 |
| 20260903014545 | 92 | 152 | 0.0 | 3.5 | 0.00 | 0.00 | 0.00 | 42 | 1010.4 |
| 20260903013049 | 92 | 146 | 0.9 | 6.1 | 0.00 | 0.00 | 0.00 | 42 | 1010.2 |
| 20260903011544 | 93 | 101 | 0.0 | 2.6 | 0.00 | 0.00 | 0.00 | 41 | 1010.1 |
| 20260903010043 | 94 | 72 | 0.9 | 3.5 | 0.00 | 0.00 | 0.00 | 41 | 1010.0 |
| 20260903004544 | 95 | 71 | 0.0 | 5.2 | 0.00 | 0.00 | 0.00 | 39 | 1009.9 |
| 20260903003042 | 96 | 295 | 0.9 | 5.2 | 0.00 | 0.00 | 0.00 | 38 | 1009.9 |
| 20260903001542 | 97 | 56 | 0.9 | 5.2 | 0.00 | 0.00 | 0.00 | 37 | 1009.9 |
| 20260903000045 | 98 | 179 | 0.0 | 5.2 | 0.00 | 0.00 | 0.00 | 36 | 1009.8 |
| 20260902234540 | 98 | 38 | 0.9 | 5.2 | 0.00 | 0.00 | 0.00 | 36 | 1009.8 |
| 20260902233043 | 98 | 153 | 0.9 | 4.3 | 0.00 | 0.00 | 0.00 | 35 | 1009.9 |
| 20260902231540 | 98 | 178 | 0.0 | 5.2 | 0.00 | 0.00 | 0.00 | 36 | 1009.9 |
| 20260902230040 | 99 | 205 | 1.7 | 7.0 | 0.00 | 0.00 | 0.00 | 35 | 1009.9 |
| 20260902224545 | 99 | 181 | 0.9 | 5.2 | 0.00 | 0.00 | 0.00 | 36 | 1010.0 |
| 20260902223052 | 100 | 127 | 0.0 | 4.3 | 0.00 | 0.00 | 0.00 | 35 | 1009.9 |
| 20260902221535 | 101 | 90 | 0.9 | 6.1 | 0.00 | 0.00 | 0.00 | 35 | 1010.0 |
| 20260902220036 | 101 | 207 | 0.9 | 5.2 | 0.00 | 0.00 | 0.00 | 35 | 1010.2 |
| 20260902214533 | 100 | 182 | 0.0 | 4.3 | 0.00 | 0.00 | 0.00 | 36 | 1010.3 |
| 20260902213030 | 101 | 100 | 0.9 | 3.5 | 0.00 | 0.00 | 0.00 | 33 | 1010.4 |
| 20260902211528 | 101 | 189 | 1.7 | 7.8 | 0.00 | 0.00 | 0.00 | 35 | 1010.5 |